Weather observations for the past three days for
Livermore, Livermore Municipal Airport
Imperial (Metric)
Date Time (pdt) Wind (mph) Vis. (mi.) Weather Sky Cond. Temperature (ºF) Relative Humidity Wind Chill (°F) Heat Index (°F) Pressure Precipitation (in)
Air Dwpt 6 hour altimeter (in) sea level (mb) 1 hr 3 hr 6 hr
Max. Min.
12 10:53 W 3 10.00 Fair CLR 90 54 90 69.1 29% 88 29.82 1009.2
12 09:53 Calm 10.00 Fair CLR 82.9 57.9 43% 83 29.83 1009.5
12 08:53 W 3 10.00 Fair CLR 79 57.9 49% 80 29.84 1009.9
12 07:53 Calm 8.00 Fair CLR 73.9 57.9 57% 29.84 1009.9
12 06:53 Calm 8.00 Fair CLR 70 55 59% 29.83 1009.7
12 05:53 E 3 10.00 Fair CLR 70 55 59% 29.82 1009.2
12 04:53 W 3 10.00 Fair CLR 71.1 54 82 71.1 55% 29.81 1008.8
12 03:53 Calm 10.00 Fair CLR 71.1 53.1 53% 29.81 1008.8
12 02:53 Calm 10.00 Fair CLR 73.9 51.1 45% 29.8 1008.6
12 01:53 Calm 10.00 Fair CLR 75 51.1 43% 78 29.82 1009.0
12 00:53 Calm 5.00 Fair with Haze CLR 77 48 36% 78 29.82 1009.0
11 23:53 Calm 10.00 Fair CLR 79 46.9 32% 79 29.83 1009.4
11 22:53 Calm 10.00 Fair CLR 82 46 107.1 81 28% 80 29.83 1009.4
11 21:53 Calm 10.00 Fair CLR 84 50 31% 82 29.83 1009.4
11 20:53 W 7 10.00 Fair CLR 86 44.1 23% 83 29.81 1008.9
11 19:53 NW 12 10.00 Fair CLR 91 44.1 20% 87 29.8 1008.4
11 18:53 W 15 10.00 Fair CLR 98.1 45 16% 94 29.78 1007.7
11 17:53 W 15 10.00 Fair CLR 102.9 46.9 15% 99 29.76 1007.2
11 16:53 W 15 10.00 Fair CLR 106 51.1 109 91 16% 103 29.77 1007.3
11 15:53 W 13 10.00 Fair CLR 108 54 17% 106 29.78 1007.8
11 14:53 W 10 10.00 Fair CLR 108 53.1 16% 106 29.79 1008.2
11 13:53 W 9 10.00 Fair CLR 108 52 16% 106 29.81 1008.7
11 12:53 SW 8 10.00 Fair CLR 102.9 52 18% 100 29.83 1009.3
11 11:53 W 6 10.00 Fair CLR 98.1 52 21% 95 29.84 1009.9
11 10:53 S 5 10.00 Fair CLR 91 55 91 66 30% 89 29.85 1010.2
11 09:53 Calm 10.00 Fair CLR 84 57.9 41% 83 29.85 1010.4
11 08:53 W 3 10.00 Fair CLR 78.1 60.1 54% 79 29.86 1010.6
11 07:53 Calm 10.00 Fair CLR 73.9 59 60% 29.86 1010.5
11 06:53 Calm 10.00 Fair CLR 69.1 55.9 63% 29.84 1010.1
11 05:53 Calm 10.00 Fair CLR 68 55 63% 29.83 1009.7
11 04:53 Calm 10.00 Fair CLR 69.1 55 81 68 61% 29.83 1009.6
11 03:53 Calm 10.00 Fair CLR 70 55.9 61% 29.83 1009.5
11 02:53 Calm 10.00 Fair CLR 71.1 55 57% 29.84 1009.7
11 01:53 Calm 10.00 Fair CLR 73 55.9 55% 29.84 1009.8
11 00:53 Calm 10.00 Fair CLR 75 55.9 52% 78 29.84 1009.8
10 23:53 NW 3 10.00 Fair CLR 77 57.9 52% 79 29.84 1010.0
10 22:53 N 3 10.00 Fair CLR 81 57.9 104 80.1 45% 81 29.84 1009.9
10 21:53 Calm 10.00 Fair CLR 82 57.9 44% 82 29.83 1009.7
10 20:53 Calm 10.00 Fair CLR 84.9 55.9 37% 84 29.82 1009.2
10 19:53 W 9 10.00 Fair CLR 89.1 55 31% 87 29.8 1008.7
10 18:53 NW 12 10.00 Fair CLR 93.9 54 26% 92 29.8 1008.5
10 17:53 W 12 10.00 Fair CLR 99 55 23% 97 29.79 1008.4
10 16:53 W 8 10.00 Fair CLR 104 54 105.1 78.1 19% 102 29.8 1008.6
10 15:53 W 7 10.00 Fair CLR 102.9 50 17% 100 29.82 1009.1
10 14:53 SW 7 10.00 Fair CLR 100 52 20% 97 29.83 1009.7
10 13:53 SW 8 10.00 Fair CLR 97 57 26% 96 29.85 1010.2
10 12:53 Vrbl 3 10.00 Fair CLR 91.9 54 28% 90 29.87 1010.8
10 11:53 Vrbl 5 10.00 Fair CLR 84.9 57 39% 84 29.88 1011.4
10 10:53 Calm 9.00 Fair CLR 78.1 59 78.1 60.1 52% 79 29.89 1011.6
10 09:53 N 3 10.00 Fair CLR 70 59 68% 29.9 1012.0
10 08:53 W 3 8.00 Partly Cloudy SCT008 64.9 57.9 78% 29.9 1012.1
10 07:53 Calm 6.00 Fog/Mist OVC006 62.1 57.9 86% 29.9 1012.0
10 06:53 SW 6 6.00 Fog/Mist OVC006 61 57.9 90% 29.88 1011.4
10 05:53 SW 6 8.00 Overcast OVC007 61 57.9 90% 29.87 1011.0
10 04:53 S 6 9.00 Overcast OVC006 61 57.9 62.1 59 90% 29.86 1010.7
10 03:53 SW 6 8.00 Overcast OVC006 61 57.9 90% 29.86 1010.7
10 02:53 NW 5 10.00 Overcast OVC009 60.1 55.9 86% 29.86 1010.7
10 01:53 NW 5 10.00 Overcast OVC010 59 55.9 90% 29.87 1011.0
10 00:53 NW 6 10.00 Fair CLR 59 55.9 90% 29.87 1011.1
09 23:53 NW 7 10.00 Fair CLR 60.1 55.9 86% 29.87 1011.1
09 22:53 NW 10 10.00 Fair CLR 61 55.9 84 61 84% 29.87 1011.1
09 21:53 NW 9 10.00 Fair CLR 62.1 55.9 80% 29.87 1011.0
09 20:53 NW 9 10.00 Fair CLR 64.9 55.9 73% 29.85 1010.4
09 19:53 W 15 10.00 Fair CLR 69.1 57 66% 29.83 1009.7
09 18:53 NW 15 10.00 Fair CLR 73.9 57 56% 29.82 1009.3
09 17:53 NW 16 10.00 Fair CLR 79 57.9 49% 80 29.81 1008.9
09 16:53 NW 15 10.00 Fair CLR 84 59 87.1 75.9 43% 84 29.81 1009.2
09 15:53 W 13 10.00 Fair CLR 87.1 59 39% 86 29.82 1009.4
09 14:53 NW 10 G 20 10.00 Fair CLR 87.1 59 39% 86 29.83 1009.7
09 13:53 W 10 10.00 Fair CLR 86 57 37% 85 29.84 1010.0
09 12:53 NW 9 10.00 Fair CLR 82.9 55.9 40% 82 29.85 1010.3
09 11:53 NW 9 10.00 Fair CLR 79 55.9 45% 80 29.85 1010.5
Date Time (pdt) Wind (mph) Vis. (mi.) Weather Sky Cond. Air Dwpt Max. Min. Relative Humidity Wind Chill (°F) Heat Index (°F) altimeter (in) sea level (mb) 1 hr 3 hr 6 hr
6 hour
Temperature (ºF) Pressure Precipitation (in)